星链-2114 (STARLINK-2114 )

导读

STARLINK-2114是美国SpaceX公司星链(Starlink)卫星互联网星座的成员,于2021年1月20日发射升空,运行于近地低轨道。星链项目旨在通过大规模低轨卫星组网,为全球尤其是偏远地区提供高速低延迟的互联网接入服务,STARLINK-2114的入轨进一步扩充了星链星座的通信覆盖容量与服务能力,支撑星座全球互联的应用目标。

基本信息
目录编号:
47393
目录名称:
STARLINK-2114
国际标识:
2021-005AW
轨道中心:
EARTH
卫星名称:
星链-2114
卫星全名:
星链-2114 (STARLINK-2114 )
卫星状态:
已陨落 最后检测时间 2026-06-15
发射日期:
2021-01-20 UTC
国别 :
美国 (US)
星等 :
--
轨道信息
数据来源 国际轨道数据
星历时间: 2026-06-15T08:32:36+0800
3天前
查看轨道信息
半长轴: 6528.339km
偏心率: 0.0004173
轨道倾角: 53.012°
近地点辐角 278.494°
升交点赤经 213.390°
平近点角 81.563°
近地点: 147.477km
远地点: 152.927km
周期: 87.491分钟
每日圈数: 16.458822
详细信息
固有亮度:
5
最大亮度:
2.5
卫星平台:
Starlink V1.0
覆盖范围:
全球
运营商:
太空探索技术公司
运营商所在国:
美国
制造商(研发单位):
太空探索技术公司
制造商所在国:
美国
使用方式:
暂无
卫星简介
星链(Starlink)计划是由太空探索技术公司(SpaceX)提出的一个巨型低轨卫星互联网星座项目,计划在2019年至2024年间在太空搭建由约1.2万颗卫星组成的“星链”网络,其中1584颗将部署在地球上空550千米处的近地轨道,并从2020年开始工作。该卫星仍在工作。